Location: Unspecified
(51.0000°N, 12.0000°E)
Time: 08:26:04
(UTC+01:00)

ISS - Pass Details

Date: 12 January 2018
Orbit: 402 x 406 km, 51.6° (Epoch: 16 January)

Event Time Altitude Azimuth Distance (km) Brightness Sun altitude
Exits shadow 04:52:11 12° 103° (ESE) 1,325 -0.4 -30.4°
Drops below altitude 10° 04:52:32 10° 103° (ESE) 1,464 -0.2 -30.3°
Sets 04:54:37 0° 103° (ESE) 2,324 1.1 -30.0°
